STARLINK-36527, 67631

Orbit data source: Space-Track

STARLINK-36527, 67631 is a payload satellite owned by SpaceX/Seattle (US) in LEO that was launched on Fri, 30 Jan 2026 UTC via an FALCON 9 launch vehicle from the Air Force Eastern Test Range (AFETR). Payload-class satellites include a variety of spacecraft equipped with specific instruments for various scientific and technological missions. These include communications satellites like Starlink; space stations such as the ISS; scientific satellites like the Hubble; Earth observation satellites from companies like Planet Labs, Umbra, and HawkEye 360; GPS; miniature CubeSats for education and research; and military/defense satellites.

Loading next visibility...
Identifier
67631, 2026-020Q
Orbit
LEO
Country
Flag of USUS
Related business
Manufacturer
SpaceX/Seattle
Mission
Operational Commercial Communications
Bus & Motor
STARLINK V2MO, Unknown motor
Mass
575 kg wet, ~530 kg dry
Launch date (UTC)
2026-01-30 (5 months ago)
Launch vehicle
FALCON 9
Launch site
Air Force Eastern Test Range (AFETR)
Object type
Payload
Rocket body
Debris
Shape & HBR
Box + 2 Pan, 17.7 m
Radar Cross Section
36.964 m², Large (>1 m²)

Expand to show TLE details & history
Last TLE update: 1 day ago

TLE from 1 day ago
0 STARLINK-36527
1 67631U 26020Q   26170.78995464  .00019474  00000-0  71500-3 0  9992
2 67631  43.0014 283.5963 0001725 273.7577  86.3077 15.27593980 21728
Epoch: 2026-06-19T18:57Z
TLE epoch observation values (Epoch: 2026-06-19T18:57:32.080Z)
Latitude
-0.00006°
Longitude
91.19868°
Altitude
482.707 km
Speed
7.626 km/s
True Right ascension
18h 54m 23s
True Declination
0° 00' 00"
Sunlit
Object was in full shadow at epoch
Visualization orbit readout
Latitude
Unknown
Longitude
Unknown
Altitude
Unknown
Speed
Unknown
Apparent Right ascension
Unknown
Apparent Declination
Unknown
Sunlit
N/A
Visualization observer readout
Local Sidereal Time
07:22:45
Azimuth
Unknown
Elevation
Unknown
Doppler factor
Unknown
Orbital elements
Apogee altitude
486.136 km
Perigee altitude
483.768 km
Semi-major axis
6,863.089 km
Eccentricity
0.00017
Inclination
43.0014°
RAAN
283.5963°
Arg. of periapsis
273.7577°
True anomaly
86.32743°
Mean anomaly
86.3077°
Eccentric anomaly
86.31756°
Mean motion
3.81737 °/min
Orbital period
94.31 mins
BSTAR
0.000715
Loading maneuver chart data...
Computing Atmospheric mass density...
Loading historical data...
Loading historical data...
Loading historical data...
Loading historical data...
Loading historical data...
Loading historical data...
Loading historical data...

Documentation

Showing up to 5 results
|